sat.trackr.live / text

‹ back to catalog

ICEYE-X57

NORAD 64578 · 2025-135BC

PAYLOAD ACTIVE UNKNOWN

§ Identity

Operator
Country
US
Launch date
2025-06-23
Launch site
AFWTR
Launch vehicle
Mass (kg)
RCS (m²)

External: N2YO · Heavens-Above · Gunter

§ Orbital elements

Epoch: 2026-09-21T22:31:10.556832Z

Period
95.95 min
Inclination
97.8212°
Eccentricity
0.0001894
Mean motion
15.00851174 rev/d
Perigee alt
563.0 km
Apogee alt
565.6 km
Semi-major
6,942.4 km
B*
2.3730e-4
RAAN
21.8332°
Arg perigee
51.5754°
Mean anomaly
308.5639°
Rev number
6,853

§ Raw data

ICEYE-X571 64578U 25135BC  26264.93831663  .00002956  00000+0  23730-3 0  99942 64578  97.8212  21.8332 0001894  51.5754 308.5639 15.00851174 68537

JSON: /api/v1/satellites/64578 · /tle

For live sub-satellite position, see the globe view (requires WebGL).

§ Visibility from observer

Set your observer location to see the next 7 days of passes ≥ 10°. The values pass through the URL so the page stays shareable.

No JS? Fill the form by hand. The geolocation button needs JavaScript.

§ Radio — SatNOGS DB

ModeDescriptionDownlinkUplink
FM S-band telemetry 2.276 GHz

1 transmitter · refreshed weekly from db.satnogs.org